| time (UTC) | temp F | wind direction | speed knots | gust knots | rain 1hr in | rain 24hr in | rain mn in | humidity % | barometer mb |
| 20260905111850 | 71 | 286 | 3.5 | 5.2 | 0.05 | 0.06 | 0.06 | 89 | 1051.5 |
| 20260905111344 | 71 | 286 | 3.5 | 5.2 | 0.05 | 0.06 | 0.06 | 89 | 1051.5 |
| 20260905110844 | 71 | 311 | 3.5 | 3.5 | 0.12 | 0.06 | 0.06 | 89 | 1051.5 |
| 20260905110338 | 71 | 95 | 2.6 | 5.2 | 0.19 | 0.05 | 0.05 | 87 | 1051.4 |
| 20260905105834 | 73 | 322 | 3.5 | 5.2 | 0.19 | 0.03 | 0.03 | 84 | 1051.5 |
| 20260905105333 | 73 | 315 | 2.6 | 7.0 | 0.07 | 0.01 | 0.01 | 86 | 1051.1 |
| 20260905104832 | 73 | 318 | 3.5 | 7.8 | 0.00 | 0.00 | 0.00 | 86 | 1051.1 |
| 20260905104329 | 74 | 315 | 4.3 | 5.2 | 0.00 | 0.00 | 0.00 | 87 | 1050.8 |
| 20260905103828 | 75 | 340 | 5.2 | 9.6 | 0.00 | 0.00 | 0.00 | 85 | 1050.9 |
| 20260905103324 | 75 | 332 | 7.0 | 8.7 | 0.00 | 0.00 | 0.00 | 87 | 1050.6 |
| 20260905102820 | 74 | 340 | 2.6 | 3.5 | 0.00 | 0.00 | 0.00 | 95 | 1050.5 |
| 20260905102317 | 73 | 313 | 0.9 | 1.7 | 0.00 | 0.00 | 0.00 | 94 | 1050.2 |
| 20260905101816 | 73 | 301 | 0.9 | 2.6 | 0.00 | 0.00 | 0.00 | 94 | 1050.1 |
| 20260905101315 | 73 | 43 | 0.0 | 0.0 | 0.00 | 0.00 | 0.00 | 93 | 1049.5 |
| 20260905100809 | 73 | 43 | 0.0 | 0.0 | 0.00 | 0.00 | 0.00 | 93 | 1049.4 |
| 20260905100305 | 73 | 43 | 0.9 | 1.7 | 0.00 | 0.00 | 0.00 | 94 | 1049.6 |
| 20260905095805 | 73 | 44 | 0.0 | 0.0 | 0.00 | 0.00 | 0.00 | 94 | 1049.4 |
| 20260905095306 | 73 | 45 | 0.0 | 0.0 | 0.00 | 0.00 | 0.00 | 94 | 1049.3 |
| 20260905094759 | 73 | 44 | 0.0 | 0.0 | 0.00 | 0.00 | 0.00 | 95 | 1049.3 |
| 20260905094255 | 73 | 44 | 0.0 | 0.0 | 0.00 | 0.00 | 0.00 | 95 | 1049.5 |
| 20260905093754 | 73 | 44 | 0.0 | 0.0 | 0.00 | 0.00 | 0.00 | 95 | 1049.4 |
| 20260905093250 | 73 | 44 | 0.0 | 0.0 | 0.00 | 0.00 | 0.00 | 95 | 1049.1 |
| 20260905092745 | 73 | 44 | 0.0 | 0.0 | 0.00 | 0.00 | 0.00 | 95 | 1049.1 |
| 20260905092241 | 73 | 44 | 0.0 | 0.0 | 0.00 | 0.00 | 0.00 | 95 | 1049.2 |
| 20260905091740 | 73 | 44 | 0.0 | 0.0 | 0.00 | 0.00 | 0.00 | 94 | 1049.2 |
| 20260905091235 | 73 | 44 | 0.0 | 0.0 | 0.00 | 0.00 | 0.00 | 94 | 1049.3 |
| 20260905090734 | 73 | 44 | 0.0 | 0.0 | 0.00 | 0.00 | 0.00 | 94 | 1049.1 |
| 20260905090230 | 73 | 44 | 0.0 | 0.0 | 0.00 | 0.00 | 0.00 | 94 | 1049.2 |
| 20260905085729 | 73 | 44 | 0.0 | 0.0 | 0.00 | 0.00 | 0.00 | 94 | 1049.2 |
| 20260905085225 | 73 | 44 | 0.0 | 0.0 | 0.00 | 0.00 | 0.00 | 94 | 1049.3 |
| 20260905084724 | 73 | 44 | 0.0 | 0.0 | 0.00 | 0.00 | 0.00 | 94 | 1049.4 |
| 20260905084224 | 73 | 44 | 0.0 | 0.0 | 0.00 | 0.00 | 0.00 | 94 | 1049.3 |
| 20260905083719 | 73 | 44 | 0.0 | 0.0 | 0.00 | 0.00 | 0.00 | 93 | 1049.0 |
| 20260905083215 | 73 | 44 | 0.0 | 0.0 | 0.00 | 0.00 | 0.00 | 93 | 1049.0 |
| 20260905082711 | 73 | 44 | 0.0 | 0.0 | 0.00 | 0.00 | 0.00 | 93 | 1049.1 |
| 20260905082206 | 73 | 44 | 0.0 | 0.0 | 0.00 | 0.00 | 0.00 | 93 | 1049.0 |
| 20260905081706 | 73 | 44 | 0.0 | 0.0 | 0.00 | 0.00 | 0.00 | 93 | 1049.1 |
| 20260905081201 | 73 | 44 | 0.0 | 0.0 | 0.00 | 0.00 | 0.00 | 94 | 1048.8 |
| 20260905080701 | 73 | 44 | 0.0 | 0.0 | 0.00 | 0.00 | 0.00 | 94 | 1048.9 |
| 20260905080201 | 73 | 44 | 0.0 | 0.0 | 0.00 | 0.00 | 0.00 | 94 | 1048.7 |
| 20260905075700 | 73 | 44 | 0.0 | 0.0 | 0.00 | 0.00 | 0.00 | 94 | 1048.8 |
| 20260905075159 | 73 | 44 | 0.0 | 0.0 | 0.00 | 0.00 | 0.00 | 94 | 1049.0 |
| 20260905074658 | 73 | 44 | 0.0 | 0.0 | 0.00 | 0.00 | 0.00 | 93 | 1049.3 |
| 20260905074154 | 73 | 44 | 0.0 | 0.0 | 0.00 | 0.00 | 0.00 | 93 | 1049.2 |
| 20260905073650 | 73 | 44 | 0.0 | 0.0 | 0.00 | 0.00 | 0.00 | 92 | 1049.3 |
| 20260905073145 | 73 | 44 | 0.0 | 0.0 | 0.00 | 0.00 | 0.00 | 92 | 1049.2 |
| 20260905072644 | 73 | 44 | 0.0 | 0.0 | 0.00 | 0.00 | 0.00 | 92 | 1049.5 |
| 20260905072140 | 73 | 44 | 0.0 | 0.0 | 0.00 | 0.00 | 0.00 | 92 | 1049.4 |
| 20260905071636 | 73 | 44 | 0.0 | 0.0 | 0.00 | 0.00 | 0.00 | 92 | 1049.3 |
| 20260905071131 | 73 | 44 | 0.0 | 0.0 | 0.00 | 0.00 | 0.00 | 91 | 1049.3 |
| 20260905070627 | 74 | 44 | 0.0 | 0.0 | 0.00 | 0.00 | 0.00 | 90 | 1049.7 |
| 20260905070123 | 75 | 44 | 0.0 | 0.0 | 0.00 | 0.00 | 0.00 | 89 | 1049.3 |
| 20260905065621 | 75 | 44 | 0.0 | 0.0 | 0.00 | 0.00 | 0.00 | 90 | 1049.5 |
| 20260905065116 | 74 | 44 | 0.0 | 0.0 | 0.00 | 0.00 | 0.00 | 90 | 1049.5 |
| 20260905064611 | 74 | 44 | 0.0 | 0.0 | 0.00 | 0.00 | 0.00 | 91 | 1049.5 |
| 20260905064106 | 74 | 44 | 0.0 | 0.0 | 0.00 | 0.00 | 0.00 | 92 | 1050.0 |
| 20260905063605 | 74 | 44 | 0.0 | 0.0 | 0.00 | 0.00 | 0.00 | 92 | 1049.7 |
| 20260905063102 | 74 | 44 | 0.0 | 0.0 | 0.00 | 0.00 | 0.00 | 91 | 1050.0 |
| 20260905062557 | 74 | 44 | 0.0 | 0.0 | 0.00 | 0.00 | 0.00 | 91 | 1050.0 |
| 20260905062056 | 74 | 44 | 0.0 | 0.0 | 0.00 | 0.00 | 0.00 | 91 | 1049.9 |
| 20260905061551 | 74 | 44 | 0.0 | 0.0 | 0.00 | 0.00 | 0.00 | 91 | 1049.9 |
| 20260905061050 | 74 | 44 | 0.0 | 0.0 | 0.00 | 0.00 | 0.00 | 91 | 1050.1 |
| 20260905060547 | 74 | 44 | 0.0 | 0.0 | 0.00 | 0.00 | 0.00 | 92 | 1050.2 |
| 20260905060042 | 74 | 44 | 0.0 | 0.0 | 0.00 | 0.00 | 0.00 | 91 | 1050.2 |
| 20260905055541 | 74 | 44 | 0.0 | 0.0 | 0.00 | 0.00 | 0.00 | 91 | 1050.3 |
| 20260905055036 | 74 | 44 | 0.0 | 0.0 | 0.00 | 0.00 | 0.00 | 91 | 1050.2 |
| 20260905054532 | 75 | 44 | 0.0 | 0.0 | 0.00 | 0.00 | 0.00 | 90 | 1050.3 |
| 20260905054027 | 75 | 44 | 0.0 | 0.0 | 0.00 | 0.00 | 0.00 | 90 | 1050.6 |
| 20260905053526 | 75 | 44 | 0.0 | 0.0 | 0.00 | 0.00 | 0.00 | 89 | 1050.3 |
| 20260905053022 | 75 | 44 | 0.0 | 0.0 | 0.00 | 0.00 | 0.00 | 89 | 1050.8 |
| 20260905052521 | 75 | 44 | 0.0 | 0.0 | 0.00 | 0.00 | 0.00 | 89 | 1050.3 |
| 20260905052016 | 75 | 44 | 0.0 | 0.0 | 0.00 | 0.00 | 0.00 | 89 | 1050.5 |
| 20260905051512 | 75 | 44 | 0.0 | 0.0 | 0.00 | 0.00 | 0.00 | 90 | 1050.6 |
| 20260905051009 | 75 | 44 | 0.0 | 0.0 | 0.00 | 0.00 | 0.00 | 91 | 1050.8 |
| 20260905050504 | 75 | 44 | 0.0 | 0.0 | 0.00 | 0.00 | 0.00 | 90 | 1050.5 |
| 20260905050001 | 75 | 44 | 0.0 | 0.0 | 0.00 | 0.00 | 0.00 | 90 | 1050.8 |
| 20260905045455 | 75 | 44 | 0.0 | 0.0 | 0.00 | 0.00 | 0.00 | 91 | 1050.6 |
| 20260905044951 | 75 | 44 | 0.0 | 0.0 | 0.00 | 0.00 | 0.00 | 91 | 1050.5 |
| 20260905044451 | 75 | 44 | 0.0 | 0.0 | 0.00 | 0.00 | 0.00 | 90 | 1050.5 |
| 20260905043945 | 75 | 44 | 0.0 | 0.0 | 0.00 | 0.00 | 0.00 | 89 | 1050.6 |
| 20260905043444 | 75 | 44 | 0.0 | 0.0 | 0.00 | 0.00 | 0.00 | 89 | 1050.6 |
| 20260905042939 | 76 | 44 | 0.0 | 0.0 | 0.00 | 0.00 | 0.00 | 88 | 1050.8 |
| 20260905042439 | 76 | 44 | 0.0 | 0.0 | 0.00 | 0.00 | 0.00 | 86 | 1050.5 |
| 20260905041934 | 77 | 44 | 0.0 | 0.0 | 0.00 | 0.00 | 0.00 | 85 | 1050.6 |
| 20260905041430 | 77 | 43 | 0.0 | 0.0 | 0.00 | 0.00 | 0.00 | 85 | 1050.8 |
| 20260905040925 | 77 | 44 | 0.0 | 0.9 | 0.00 | 0.00 | 0.00 | 84 | 1050.5 |
| 20260905040424 | 78 | 44 | 0.0 | 0.9 | 0.00 | 0.00 | 0.00 | 82 | 1050.6 |